TimeEDT,TemperatureF,Dew PointF,Humidity,Sea Level PressureIn,VisibilityMPH,Wind Direction,Wind SpeedMPH,Gust SpeedMPH,PrecipitationIn,Events,Conditions,WindDirDegrees,DateUTC
12:53 AM,43.0,35.1,74,30.20,10.0,SSW,4.6,-,N/A,,Clear,200,2012-10-12 04:53:00
1:53 AM,46.9,35.1,63,30.19,10.0,SW,5.8,-,N/A,,Overcast,220,2012-10-12 05:53:00
2:53 AM,48.0,35.1,61,30.19,10.0,WSW,4.6,-,N/A,,Overcast,250,2012-10-12 06:53:00
3:53 AM,48.0,36.0,63,30.19,10.0,NW,3.5,-,N/A,,Mostly Cloudy,320,2012-10-12 07:53:00
4:53 AM,46.9,39.0,74,30.22,10.0,North,12.7,-,N/A,,Overcast,10,2012-10-12 08:53:00
5:07 AM,46.4,39.2,76,30.22,10.0,NNE,19.6,24.2,N/A,,Overcast,20,2012-10-12 09:07:00
5:53 AM,45.0,37.0,74,30.27,10.0,NNE,16.1,-,N/A,,Overcast,20,2012-10-12 09:53:00
6:53 AM,44.1,35.1,71,30.31,10.0,NNE,15.0,-,N/A,,Overcast,20,2012-10-12 10:53:00
7:53 AM,43.0,34.0,71,30.34,10.0,North,11.5,-,N/A,,Overcast,10,2012-10-12 11:53:00
8:53 AM,43.0,34.0,71,30.37,10.0,North,12.7,-,N/A,,Overcast,360,2012-10-12 12:53:00
9:53 AM,44.1,34.0,68,30.40,10.0,North,16.1,-,N/A,,Overcast,10,2012-10-12 13:53:00
10:53 AM,48.0,34.0,58,30.41,10.0,NNE,12.7,-,N/A,,Clear,20,2012-10-12 14:53:00
1:53 PM,52.0,28.0,40,30.40,10.0,NE,10.4,20.7,N/A,,Clear,50,2012-10-12 17:53:00
2:53 PM,52.0,28.9,41,30.39,10.0,NE,8.1,17.3,N/A,,Clear,50,2012-10-12 18:53:00
3:53 PM,53.1,27.0,37,30.38,10.0,NE,9.2,-,N/A,,Clear,50,2012-10-12 19:53:00
4:53 PM,53.1,28.9,40,30.38,10.0,NE,9.2,-,N/A,,Clear,50,2012-10-12 20:53:00
5:53 PM,51.1,27.0,39,30.39,10.0,NE,8.1,-,N/A,,Clear,40,2012-10-12 21:53:00
6:53 PM,45.0,30.0,56,30.40,10.0,NE,6.9,-,N/A,,Clear,40,2012-10-12 22:53:00
7:53 PM,39.9,30.0,68,30.41,10.0,NE,5.8,-,N/A,,Clear,40,2012-10-12 23:53:00
8:53 PM,37.9,30.0,73,30.42,10.0,NE,4.6,-,N/A,,Clear,50,2012-10-13 00:53:00
10:53 PM,35.1,30.0,82,30.41,10.0,ENE,3.5,-,N/A,,Clear,70,2012-10-13 02:53:00
11:53 PM,35.1,30.0,82,30.42,10.0,Calm,Calm,-,N/A,,Clear,0,2012-10-13 03:53:00